Hourly Data Report for October 04, 2013

All times are specified in Local Standard Time (LST). Add 1 hour to adjust for Daylight Saving Time where and when it is observed.

CLYDE RIVER A
NUNAVUT

70°29'09.000" N
68°31'01.000" W
26.50 m
2400804
71090
YCY

Download Data

Hourly Data (October 2013)
Hourly Data Report for October 4, 2013
Temp Definition
°C
Dew Point Temp Definition
°C
Rel Hum Definition
%
Wind Dir Definition
10's deg

Wind Spd Definition
km/h
Visibility Definition
km
Stn Press Definition
kPa
Hmdx Definition


Wind Chill Definition


Weather Definition


TIME
00:00 Legend Double Dagger -5.9 -10.9 68 27 8 16.1 101.28   -10 LegendNANA
01:00 Legend Double Dagger -7.7 -12.8 67 27 5 16.1 101.29   -10 LegendNANA
02:00 Legend Double Dagger -8.3 -13.9 64 26 8 16.1 101.29   -12 LegendNANA
03:00 Legend Double Dagger -9.0 -14.1 67 28 13 16.1 101.32   -15 LegendNANA
04:00 Legend Double Dagger -9.7 -13.9 72 26 13 16.1 101.33   -16 LegendNANA
05:00 Legend Double Dagger -10.2 -13.3 78 24 9 16.1 101.35   -15 LegendNANA
06:00 Legend Double Dagger -8.3 -11.8 76 29 28 16.1 101.36   -17 LegendNANA
07:00 Legend Double Dagger -6.7 -9.9 78 29 28 16.1 101.36   -15 LegendNANA
08:00 Legend Double Dagger -6.5 -9.7 78 30 22 16.1 101.36   -14 LegendNANA
09:00 Legend Double Dagger -5.5 -8.8 78 30 22 16.1 101.36   -13 LegendNANA
10:00 Legend Double Dagger -5.0 -8.0 80 30 17 16.1 101.35   -11 LegendNANA
11:00 Legend Double Dagger -4.7 -7.9 79 29 21 16.1 101.33   -11 LegendNANA
12:00 Legend Double Dagger -4.6 -7.3 82 29 17 16.1 101.34   -10 LegendNANA
13:00 Legend Double Dagger -4.5 -7.4 80 29 21 16.1 101.36   -11 LegendNANA
14:00 Legend Double Dagger -4.6 -7.5 80 29 21 16.1 101.36   -11 LegendNANA
15:00 Legend Double Dagger -4.7 -7.5 81 29 22 16.1 101.37   -12 LegendNANA
16:00 Legend Double Dagger -5.0 -7.9 80 29 21 16.1 101.36   -12 LegendNANA
17:00 Legend Double Dagger -5.3 -8.1 81 29 21 16.1 101.35   -12 LegendNANA
18:00 Legend Double Dagger -5.6 -8.2 82 29 13 16.1 101.36   -11 LegendNANA
19:00 Legend Double Dagger -5.2 -8.8 76 29 5 16.1 101.37   -7 LegendNANA
20:00 Legend Double Dagger -5.6 -9.0 77 30 21 16.1 101.35   -12 LegendNANA
21:00 Legend Double Dagger -5.7 -9.1 77 31 24 16.1 101.33   -13 LegendNANA
22:00 Legend Double Dagger -6.0 -8.6 82 31 26 16.1 101.32   -14 LegendNANA
23:00 Legend Double Dagger -5.3 -7.6 84 30 24 16.1 101.31   -13 LegendNANA

Notes on Data Quality.

Legend

  • E = Estimated
  • M = Missing
  • NA = Not Available
  • ‡ = Partner data that is not subject to review by the National Climate Archives
Date modified: